Location: Del Amo
(33.8464°N, 118.2104°W)
Time: 08:51:40
(UTC+00:00)

Vanguard 1 Rocket - Pass Details

Date: 20 September 2024
Orbit: 650 x 4218 km, 34.3° (Epoch: 09 October)

Event Time Altitude Azimuth Distance (km) Brightness Sun altitude
Rises 08:52:41 0° 223° (SW) 4,065 - -52.0°
Reaches altitude 10° 08:55:00 10° 217° (SW) 3,392 - -51.7°
Maximum altitude 09:03:36 51° 144° (SE) 2,444 - -50.8°
Exits shadow 09:07:38 42° 103° (ESE) 3,111 9.9 -50.4°
Drops below altitude 10° 09:20:11 10° 75° (ENE) 6,277 12.0 -48.9°
Sets 09:26:19 0° 72° (ENE) 7,775 12.7 -48.1°
